User: anonymous   Login
Location: Taipo
(41.0000°S, 175.9500°E)
Time: 06:48:36
(UTC+00:00)
Language:

NOSS 3-2 (C) - Orbit

View from above orbital plane
View from above orbital plane
View from above satellite
View from above satellite

Ground track
Ground track

The orbit data is extracted from the following two-line orbital elements,

1 28097U 03054C   24119.90791991 0.00000900  00000-0  71547-3 0    09
2 28097  63.3952  27.0325 0526207   3.2504 356.7496 13.40979070    01
Epoch (UTC): 28 April 2024 21:47:24
Eccentricity: 0.0526207
inclination: 63.3952°
perigee height: 712 km
apogee height: 1499 km
right ascension of ascending node: 27.0325°
argument of perigee: 3.2504°
revolutions per day: 13.40979070
mean anomaly at epoch: 356.7496°
orbit number at epoch: 0

The dashed part of the orbit path shows where the satellite is in the earth's shadow,  

DLR